STARLINK-1205

decayed
NORAD ID: 45184 Int'l Des: 2020-012 Owner: SPXS Country: US Constellation: starlink
LEOCIRCULAR
Gruppe

Über STARLINK-1205

Beschreibung wird geladen...

Höhenverlauf

Altitude vs Time

uPlot chart will show altitude changes over time

Zweizeiliger Elementsatz

1 45184U 20012G 25084.18520723 .05031352 12027-4 12509-2 0 9998
2 45184 53.0185 89.4374 0003499 240.2389 203.4255 16.28370854282685
Epoch: 25. März 2025 • Age: 4207 hours

Aktueller Status

Position data unavailable
Startdatum 17. Feb. 2020
Alter 5.5 years
Verglühungsdatum 25. März 2025
Typ internet

Technische Details

Klassifizierung Payload
Masse 260.00 kg
Trockenmasse 248.00 kg
Gesamtmasse 260.00 kg
Länge 0.20 m
Durchmesser 2.80 m
Spannweite 9.00 m
Form Box + pan
Hersteller SPXS
Bus-Typ Starlink
Phasenstatus Unknown Transfer Status
Besitzer/Staat SPXS/US

Große Konstellationen

Loading constellations...